Date String (YYYY-MM-DD hh:mm:ss) UTC,Instrument flags,Ambient pressure (hPa),Sample flow (lpm),Bypass flow (lpm),Sample temperature (°C),Ambient temperature (°C),ASC tube jacket temperature (°C),LED temperature (°C),Box temperature (°C),Sample RH (%),Span deviation,Mass concentration (μg/m³),Mass concentration (μg/m³),Mass concentration (μg/m³)
DateTimeUTC,F1_M11,P_M11,Q1_M11,Q2_M11,T1_M11,T2_M11,T3_M11,T4_M11,T5_M11,U1_M11,ZSPAN_M11,X2_M11,X0_M11,X1_M11
2023-03-01 22:00:00,,0816.3,5.00,0.00,22.6,21.1,00.0,31.3,24.1,14.8,0000.0,0002.62,0006.70,0001.78
2023-03-01 22:01:00,,0816.3,4.98,0.00,22.5,21.1,00.0,31.3,24.1,15.1,0000.0,0002.59,0006.36,0001.77
2023-03-01 22:02:00,,0816.3,4.98,0.00,22.5,21.0,00.0,31.3,24.1,15.5,0000.0,0002.52,0006.28,0001.78
2023-03-01 22:03:00,,0816.4,5.00,0.00,22.5,21.0,00.0,31.3,24.1,15.7,0000.0,0002.53,0006.65,0001.79
2023-03-01 22:04:00,,0816.4,5.02,0.00,22.5,21.0,00.0,31.3,24.1,15.6,0000.0,0002.57,0006.97,0001.79
2023-03-01 22:05:00,,0816.4,5.02,0.00,22.5,21.0,00.0,31.3,24.1,15.6,0000.0,0002.62,0007.05,0001.79
2023-03-01 22:06:00,,0816.4,5.01,0.00,22.5,20.9,00.0,31.3,24.1,15.8,0000.0,0002.63,0006.97,0001.78
2023-03-01 22:07:00,,0816.4,4.99,0.00,22.5,20.9,00.0,31.3,24.1,15.8,0000.0,0002.59,0006.89,0001.79
2023-03-01 22:08:00,,0816.4,4.99,0.00,22.5,20.9,00.0,31.3,24.1,15.7,0000.0,0002.56,0006.55,0001.80
2023-03-01 22:09:00,,0816.3,5.00,0.00,22.5,20.9,00.0,31.3,24.1,15.8,0000.0,0002.61,0006.62,0001.81
2023-03-01 22:10:00,,0816.4,4.99,0.00,22.5,21.0,00.0,31.3,24.1,16.1,0000.0,0002.65,0006.21,0001.83
2023-03-01 22:11:00,,0816.4,5.02,0.00,22.5,22.0,00.0,31.3,24.4,16.1,0000.0,0002.66,0005.66,0001.86
2023-03-01 22:12:00,,0816.4,4.97,0.00,22.7,22.9,00.0,31.3,24.6,16.1,0000.0,0002.68,0005.64,0001.90
2023-03-01 22:13:00,,0816.4,5.00,0.00,22.7,22.8,00.0,31.3,24.6,16.1,0000.0,0002.73,0005.63,0001.92
2023-03-01 22:14:00,,0816.4,4.99,0.00,22.7,22.4,00.0,31.4,24.5,16.1,0000.0,0002.73,0005.28,0001.92
2023-03-01 22:15:00,,0816.4,5.00,0.00,22.7,22.1,00.0,31.4,24.5,16.2,0000.0,0002.75,0005.00,0001.95
2023-03-01 22:16:00,,0816.4,5.00,0.00,22.7,21.9,00.0,31.4,24.4,16.4,0000.0,0002.76,0005.17,0001.97
2023-03-01 22:17:00,,0816.4,5.02,0.00,22.7,21.7,00.0,31.4,24.4,16.3,0000.0,0002.74,0005.12,0001.98
2023-03-01 22:18:00,,0816.4,5.01,0.00,22.7,21.5,00.0,31.4,24.4,16.2,0000.0,0002.77,0005.35,0002.00
2023-03-01 22:19:00,,0816.3,4.99,0.00,22.7,21.4,00.0,31.4,24.4,16.3,0000.0,0002.79,0005.76,0002.01
2023-03-01 22:20:00,,0816.4,4.99,0.00,22.7,21.3,00.0,31.4,24.3,16.2,0000.0,0002.76,0005.69,0002.02
2023-03-01 22:21:00,,0816.3,5.01,0.00,22.7,21.3,00.0,31.4,24.3,16.1,0000.0,0002.74,0005.66,0002.02
2023-03-01 22:22:00,,0816.3,5.00,0.00,22.7,21.2,00.0,31.4,24.3,16.3,0000.0,0002.78,0005.55,0002.03
2023-03-01 22:23:00,,0816.3,5.02,0.00,22.6,21.1,00.0,31.4,24.3,16.4,0000.0,0002.79,0005.53,0002.02
2023-03-01 22:24:00,,0816.3,5.00,0.00,22.6,21.1,00.0,31.4,24.3,16.4,0000.0,0002.84,0005.70,0002.01
2023-03-01 22:25:00,,0816.3,5.01,0.00,22.6,21.0,00.0,31.4,24.2,16.5,0000.0,0002.87,0005.77,0002.01
2023-03-01 22:26:00,,0816.3,5.01,0.00,22.6,21.0,00.0,31.4,24.2,16.4,0000.0,0002.88,0005.84,0001.99
2023-03-01 22:27:00,,0816.3,5.01,0.00,22.6,21.0,00.0,31.4,24.2,16.4,0000.0,0002.82,0005.65,0001.96
2023-03-01 22:28:00,,0816.3,5.00,0.00,22.6,21.0,00.0,31.4,24.2,16.4,0000.0,0002.85,0005.93,0001.94
2023-03-01 22:29:00,,0816.3,4.98,0.00,22.6,20.9,00.0,31.4,24.2,16.4,0000.0,0002.81,0005.78,0001.93
2023-03-01 22:30:00,,0816.2,5.00,0.00,22.6,20.9,00.0,31.4,24.1,16.4,0000.0,0002.79,0005.44,0001.91
2023-03-01 22:31:00,,0816.2,5.01,0.00,22.5,20.9,00.0,31.4,24.1,16.2,0000.0,0002.73,0005.27,0001.89
2023-03-01 22:32:00,,0816.1,4.99,0.00,22.5,20.9,00.0,31.3,24.1,16.0,0000.0,0002.72,0005.35,0001.87
2023-03-01 22:33:00,,0816.1,5.00,0.00,22.5,20.9,00.0,31.3,24.1,15.9,0000.0,0002.66,0005.43,0001.85
2023-03-01 22:34:00,,0816.1,5.01,0.00,22.5,20.9,00.0,31.3,24.1,15.9,0000.0,0002.62,0005.76,0001.84
2023-03-01 22:35:00,,0816.1,4.98,0.00,22.5,20.8,00.0,31.3,24.1,15.9,0000.0,0002.61,0006.21,0001.82
2023-03-01 22:36:00,,0816.1,5.00,0.00,22.5,20.8,00.0,31.3,24.1,15.8,0000.0,0002.56,0006.28,0001.82
2023-03-01 22:37:00,,0816.1,4.96,0.00,22.4,20.8,00.0,31.3,24.0,15.9,0000.0,0002.53,0006.25,0001.82
2023-03-01 22:38:00,,0816.1,4.96,0.00,22.4,20.7,00.0,31.3,24.0,16.2,0000.0,0002.58,0006.22,0001.82
2023-03-01 22:39:00,,0816.1,5.00,0.00,22.4,20.7,00.0,31.3,24.0,16.4,0000.0,0002.53,0005.98,0001.83
2023-03-01 22:40:00,,0816.1,4.99,0.00,22.4,20.7,00.0,31.3,24.0,16.4,0000.0,0002.53,0005.79,0001.83
2023-03-01 22:41:00,,0816.1,5.01,0.00,22.4,20.7,00.0,31.2,24.0,16.2,0000.0,0002.56,0005.97,0001.82
2023-03-01 22:42:00,,0816.1,4.99,0.00,22.4,20.7,00.0,31.2,24.0,16.1,0000.0,0002.57,0005.98,0001.82
2023-03-01 22:43:00,,0816.1,5.04,0.00,22.4,21.2,00.0,31.2,24.1,16.1,0000.0,0002.54,0006.15,0001.81
2023-03-01 22:44:00,,0816.1,4.95,0.00,22.5,22.3,00.0,31.2,24.4,16.0,0000.0,0002.54,0006.54,0001.81
2023-03-01 22:45:00,,0816.1,4.98,0.00,22.6,23.3,00.0,31.2,24.6,16.0,0000.0,0002.57,0006.27,0001.81
2023-03-01 22:46:00,,0816.1,4.99,0.00,22.7,23.0,00.0,31.3,24.7,16.1,0000.0,0002.52,0005.81,0001.82
2023-03-01 22:47:00,,0816.2,4.96,0.00,22.7,22.6,00.0,31.3,24.6,16.1,0000.0,0002.54,0006.66,0001.82
2023-03-01 22:48:00,,0816.1,4.98,0.00,22.7,22.2,00.0,31.3,24.6,16.1,0000.0,0002.53,0006.67,0001.81
2023-03-01 22:49:00,,0816.1,5.00,0.00,22.7,22.0,00.0,31.4,24.5,16.2,0000.0,0002.47,0007.07,0001.81
2023-03-01 22:50:00,,0816.1,5.00,0.00,22.7,21.8,00.0,31.4,24.5,16.2,0000.0,0002.46,0006.99,0001.80
2023-03-01 22:51:00,,0816.1,5.00,0.00,22.7,21.6,00.0,31.4,24.5,16.2,0000.0,0002.51,0007.14,0001.79
2023-03-01 22:52:00,,0816.1,5.00,0.00,22.7,21.5,00.0,31.4,24.4,16.2,0000.0,0002.47,0007.10,0001.79
2023-03-01 22:53:00,,0816.1,5.00,0.00,22.7,21.4,00.0,31.4,24.4,16.1,0000.0,0002.44,0006.96,0001.80
2023-03-01 22:54:00,,0816.1,5.00,0.00,22.7,21.3,00.0,31.4,24.3,16.1,0000.0,0002.45,0006.71,0001.81
2023-03-01 22:55:00,,0816.2,4.99,0.00,22.7,21.2,00.0,31.4,24.3,16.1,0000.0,0002.50,0006.05,0001.80
2023-03-01 22:56:00,,0816.1,5.00,0.00,22.6,21.2,00.0,31.4,24.3,16.1,0000.0,0002.47,0006.04,0001.80
2023-03-01 22:57:00,,0816.2,5.00,0.00,22.6,21.1,00.0,31.4,24.3,16.2,0000.0,0002.43,0005.80,0001.79
2023-03-01 22:58:00,,0816.2,5.00,0.00,22.6,21.0,00.0,31.4,24.3,16.2,0000.0,0002.36,0004.66,0001.78
2023-03-01 22:59:00,,0816.2,5.00,0.00,22.6,21.0,00.0,31.4,24.3,16.2,0000.0,0002.37,0004.68,0001.79
